• In Czech Republic
  • List of Countries
  • For 7 days
  • Water Temperature
  • Satellite Maps
  • Weather Map
  • Weather Widgets
  • user-avatar
    Login

    Hourly Weather Trinidad

    Today, 16 December, Saturday

    Time Temperature Precipitation Wind Pressure Humidity
    00:00 +28°C° 0 mm 1 mps 741 mmHg 76%
    01:00 +28°C° 0 mm 1 mps 741 mmHg 78%
    02:00 +27°C° 0 mm 1 mps 741 mmHg 81%
    03:00 +27°C° 0 mm 1 mps 741 mmHg 83%
    04:00 +26°C° 0 mm 1 mps 741 mmHg 86%
    05:00 +26°C° 0 mm 1 mps 741 mmHg 88%
    06:00 +27°C° 0 mm 1 mps 742 mmHg 83%
    07:00 +28°C° 0 mm 1 mps 742 mmHg 79%
    08:00 +30°C° 0 mm 1 mps 743 mmHg 74%
    09:00 +31°C° 0.8 mm 1 mps 743 mmHg 73%
    10:00 +32°C° 0.8 mm 1 mps 742 mmHg 71%
    11:00 +34°C° 0.8 mm 2 mps 742 mmHg 70%
    12:00 +35°C° 0.6 mm 2 mps 741 mmHg 62%
    13:00 +36°C° 0.6 mm 2 mps 741 mmHg 55%
    14:00 +37°C° 0.6 mm 2 mps 740 mmHg 48%
    15:00 +37°C° 0 mm 2 mps 739 mmHg 50%
    16:00 +36°C° 0 mm 2 mps 739 mmHg 52%
    17:00 +35°C° 0 mm 2 mps 738 mmHg 54%
    18:00 +34°C° 0 mm 2 mps 738 mmHg 60%
    19:00 +31°C° 0 mm 2 mps 738 mmHg 67%
    20:00 +30°C° 0 mm 1 mps 738 mmHg 73%
    21:00 +29°C° 0 mm 1 mps 739 mmHg 75%
    22:00 +29°C° 0 mm 1 mps 740 mmHg 77%
    23:00 +28°C° 0 mm 1 mps 740 mmHg 80%

    Tomorrow, 17 December, Sunday

    Time Temperature Precipitation Wind Pressure Humidity
    00:00 +28°C° 0 mm 1 mps 740 mmHg 81%
    01:00 +27°C° 0 mm 1 mps 740 mmHg 83%
    02:00 +27°C° 0 mm 1 mps 740 mmHg 85%
    03:00 +27°C° 0 mm 1 mps 740 mmHg 86%
    04:00 +26°C° 0 mm 1 mps 740 mmHg 87%
    05:00 +26°C° 0 mm 1 mps 740 mmHg 88%
    06:00 +27°C° 0 mm 2 mps 741 mmHg 83%
    07:00 +28°C° 0 mm 2 mps 742 mmHg 78%
    08:00 +29°C° 0 mm 2 mps 743 mmHg 73%
    09:00 +31°C° 0.5 mm 2 mps 743 mmHg 69%
    10:00 +33°C° 0.5 mm 3 mps 743 mmHg 66%
    11:00 +35°C° 0.5 mm 3 mps 743 mmHg 62%
    12:00 +36°C° 0.1 mm 3 mps 742 mmHg 57%
    13:00 +37°C° 0.1 mm 3 mps 741 mmHg 52%
    14:00 +37°C° 0.1 mm 4 mps 740 mmHg 47%
    15:00 +37°C° 0 mm 3 mps 739 mmHg 50%
    16:00 +36°C° 0 mm 3 mps 739 mmHg 53%
    17:00 +35°C° 0 mm 3 mps 738 mmHg 57%
    18:00 +33°C° 0 mm 3 mps 739 mmHg 63%
    19:00 +31°C° 0 mm 2 mps 739 mmHg 69%
    20:00 +30°C° 0 mm 2 mps 740 mmHg 75%
    21:00 +29°C° 0 mm 2 mps 740 mmHg 77%
    22:00 +29°C° 0 mm 2 mps 741 mmHg 80%
    23:00 +28°C° 0 mm 1 mps 742 mmHg 82%

    Day after tomorrow, 18 December, Monday

    Time Temperature Precipitation Wind Pressure Humidity
    00:00 +27°C° 0 mm 1 mps 742 mmHg 85%
    01:00 +27°C° 0 mm 1 mps 741 mmHg 87%
    02:00 +26°C° 0 mm 1 mps 741 mmHg 90%
    03:00 +26°C° 0 mm 1 mps 741 mmHg 90%
    04:00 +26°C° 0 mm 1 mps 742 mmHg 91%
    05:00 +26°C° 0 mm 1 mps 742 mmHg 92%
    06:00 +27°C° 0 mm 1 mps 742 mmHg 86%
    07:00 +28°C° 0 mm 1 mps 743 mmHg 80%
    08:00 +29°C° 0 mm 1 mps 744 mmHg 74%
    09:00 +31°C° 0 mm 1 mps 744 mmHg 67%
    10:00 +33°C° 0 mm 1 mps 744 mmHg 60%
    11:00 +35°C° 0 mm 1 mps 744 mmHg 52%
    12:00 +35°C° 0.7 mm 1 mps 744 mmHg 55%
    13:00 +35°C° 0.7 mm 1 mps 743 mmHg 58%
    14:00 +35°C° 0.7 mm 1 mps 742 mmHg 62%
    15:00 +33°C° 0.9 mm 1 mps 741 mmHg 67%
    16:00 +32°C° 0.9 mm 1 mps 741 mmHg 72%
    17:00 +31°C° 0.9 mm 1 mps 740 mmHg 77%
    18:00 +30°C° 0.1 mm 1 mps 741 mmHg 81%
    19:00 +29°C° 0.1 mm 1 mps 741 mmHg 84%
    20:00 +28°C° 0.1 mm 1 mps 742 mmHg 88%
    21:00 +27°C° 0.3 mm 1 mps 742 mmHg 89%
    22:00 +27°C° 0.3 mm 1 mps 743 mmHg 91%
    23:00 +27°C° 0.3 mm 1 mps 744 mmHg 92%

    19 December, Tuesday

    Time Temperature Precipitation Wind Pressure Humidity
    00:00 +24°C° 1.2 mm 0 mps 743 mmHg 93%
    01:00 +24°C° 1.2 mm 0 mps 743 mmHg 95%
    02:00 +24°C° 1.2 mm 0 mps 742 mmHg 96%
    03:00 +23°C° 1.7 mm 0 mps 742 mmHg 97%
    04:00 +25°C° 1.7 mm 1 mps 742 mmHg 97%
    05:00 +25°C° 1.7 mm 1 mps 743 mmHg 97%
    06:00 +26°C° 0.8 mm 1 mps 743 mmHg 96%
    07:00 +26°C° 0.8 mm 1 mps 744 mmHg 94%
    08:00 +27°C° 0.8 mm 1 mps 744 mmHg 92%
    09:00 +29°C° 0.8 mm 2 mps 744 mmHg 85%
    10:00 +31°C° 0.8 mm 2 mps 744 mmHg 77%
    11:00 +32°C° 0.8 mm 2 mps 744 mmHg 70%
    12:00 +34°C° 0.3 mm 1 mps 743 mmHg 62%
    13:00 +35°C° 0.3 mm 1 mps 742 mmHg 54%
    14:00 +37°C° 0.3 mm 1 mps 742 mmHg 46%
    15:00 +36°C° 0 mm 1 mps 741 mmHg 47%
    16:00 +36°C° 0 mm 1 mps 740 mmHg 48%
    17:00 +33°C° 0 mm 0 mps 740 mmHg 49%
    18:00 +34°C° 0 mm 1 mps 740 mmHg 56%
    19:00 +32°C° 0 mm 1 mps 741 mmHg 62%
    20:00 +30°C° 0 mm 1 mps 741 mmHg 69%
    21:00 +29°C° 0.2 mm 1 mps 742 mmHg 75%
    22:00 +28°C° 0.2 mm 1 mps 742 mmHg 81%
    23:00 +27°C° 0.2 mm 2 mps 743 mmHg 86%

    20 December, Wednesday

    Time Temperature Precipitation Wind Pressure Humidity
    00:00 +27°C° 1.5 mm 2 mps 742 mmHg 90%
    01:00 +26°C° 1.5 mm 2 mps 742 mmHg 94%
    02:00 +26°C° 1.5 mm 2 mps 742 mmHg 98%
    03:00 +25°C° 1.6 mm 2 mps 742 mmHg 98%
    04:00 +25°C° 1.6 mm 2 mps 742 mmHg 98%
    05:00 +25°C° 1.6 mm 2 mps 742 mmHg 98%
    06:00 +26°C° 0.3 mm 2 mps 743 mmHg 97%
    07:00 +26°C° 0.3 mm 2 mps 743 mmHg 97%
    08:00 +26°C° 0.3 mm 2 mps 744 mmHg 96%
    09:00 +27°C° 0.2 mm 2 mps 744 mmHg 93%
    10:00 +27°C° 0.2 mm 2 mps 744 mmHg 90%
    11:00 +28°C° 0.2 mm 2 mps 744 mmHg 87%
    12:00 +29°C° 0.5 mm 2 mps 743 mmHg 83%
    13:00 +30°C° 0.5 mm 2 mps 742 mmHg 79%
    14:00 +31°C° 0.5 mm 2 mps 742 mmHg 76%
    15:00 +31°C° 0.2 mm 2 mps 741 mmHg 73%
    16:00 +31°C° 0.2 mm 2 mps 740 mmHg 71%
    17:00 +32°C° 0.2 mm 2 mps 739 mmHg 68%
    18:00 +30°C° 0 mm 2 mps 739 mmHg 74%
    19:00 +29°C° 0 mm 2 mps 740 mmHg 79%
    20:00 +28°C° 0 mm 1 mps 740 mmHg 85%
    21:00 +27°C° 0 mm 1 mps 740 mmHg 86%
    22:00 +27°C° 0 mm 2 mps 741 mmHg 87%
    23:00 +26°C° 0 mm 2 mps 741 mmHg 88%

    21 December, Thursday

    Time Temperature Precipitation Wind Pressure Humidity
    00:00 +26°C° 0 mm 1 mps 741 mmHg 89%
    01:00 +26°C° 0 mm 1 mps 741 mmHg 90%
    02:00 +26°C° 0 mm 1 mps 740 mmHg 90%
    03:00 +25°C° 0.1 mm 1 mps 741 mmHg 92%
    04:00 +25°C° 0.1 mm 1 mps 741 mmHg 94%
    05:00 +25°C° 0.1 mm 1 mps 741 mmHg 95%
    06:00 +26°C° 0.3 mm 1 mps 741 mmHg 93%
    07:00 +26°C° 0.3 mm 2 mps 742 mmHg 90%
    08:00 +27°C° 0.3 mm 2 mps 743 mmHg 87%
    09:00 +27°C° 0.9 mm 2 mps 743 mmHg 88%
    10:00 +28°C° 0.9 mm 2 mps 743 mmHg 88%
    11:00 +28°C° 0.9 mm 2 mps 742 mmHg 89%
    12:00 +29°C° 0.2 mm 2 mps 742 mmHg 82%
    13:00 +30°C° 0.2 mm 3 mps 741 mmHg 74%
    14:00 +33°C° 0.2 mm 3 mps 740 mmHg 67%
    15:00 +33°C° 0 mm 3 mps 739 mmHg 65%
    16:00 +33°C° 0 mm 3 mps 738 mmHg 64%
    17:00 +34°C° 0 mm 3 mps 738 mmHg 62%
    18:00 +31°C° 0 mm 3 mps 738 mmHg 69%
    19:00 +30°C° 0 mm 2 mps 739 mmHg 76%
    20:00 +28°C° 0 mm 2 mps 739 mmHg 82%
    21:00 +28°C° 0 mm 2 mps 740 mmHg 83%
    22:00 +28°C° 0 mm 2 mps 740 mmHg 85%
    23:00 +28°C° 0 mm 2 mps 741 mmHg 86%
    Show more